Regional Weather Roundup
Issued by NWS

Home | Current Version | Previous Version | Text Only | Print | Product List | Glossary Off
Versions: 1 2 3 4 5 6 7 8 9 10 11 12 13 14 15 16 17 18 19 20 21 22 23 24 25 26 27 28 29 30 31 32 33 34 35 36 37 38 39 40 41 42 43 44 45 46 47 48 49 50

000
ASUS45 KSLC 241010
RWRUT

UTAH REGIONAL WEATHER ROUNDUP
NATIONAL WEATHER SERVICE SALT LAKE CITY UT
300 AM MST SAT JAN 24 2015

UTZ001>011-023>025-241100-

NORTHERN UTAH

CITY           SKY/WX    TMP DP  RH WIND       PRES   REMARKS
BRIGHAM CITY   CLEAR     26  22  85 CALM      30.54R
HILL AFB       PTCLDY    26  17  67 E8        30.50R WCI  18
LOGAN          CLEAR     22  18  85 W3        30.53R
OGDEN          PTCLDY    24  18  77 S7        30.50R WCI  16
PROVO AIRPORT  PTCLDY    21  16  79 SE3       30.50F
SALT LAKE CITY PTCLDY    25  20  81 SE5       30.49F WCI  19
VERNAL         PTCLDY    19  11  70 CALM      30.43R
WENDOVER       PTCLDY    21  19  93 CALM      30.49R
HEBER CITY     PTCLDY    16  14  93 CALM      30.46F
WEST JORDAN    CLEAR     23  19  86 SW5       30.48F WCI  17

$$

UTZ012>022-026-027-241100-

SOUTHERN/CENTRAL UTAH

CITY           SKY/WX    TMP DP  RH WIND       PRES   REMARKS
BLANDING       CLEAR     26  14  60 NE3       30.38F
BRYCE CANYON   CLEAR     19  13  77 NE14      30.43R WCI   6
CEDAR CITY     PTCLDY    22  16  78 SW5       30.39F WCI  16
DELTA          PTCLDY    22  18  84 E8        30.48S WCI  13
MILFORD        CLEAR     23  17  78 E3        30.47R
MOAB/CYNLANDS  CLEAR     21  17  84 CALM      30.39R
PRICE          PTCLDY    23  14  68 N8        30.37R WCI  14
ST GEORGE      MOSUNNY   45  18  33 SE5       30.39S
KANAB          CLEAR     34  16  47 N12       30.41R WCI  25

$$

REGIONAL REPORTS     COLORADO/ARIZONA

CITY           SKY/WX    TMP DP  RH WIND       PRES   REMARKS
CRAIG, CO      PTCLDY     3  -1  83 CALM      30.43R
GRAND JUNCTION PTCLDY    24  14  65 SE9       30.40R WCI  14
RIFLE          PTCLDY    20  11  68 S9        30.40R WCI   9
MONTROSE       PTCLDY    22   8  55 SE8       30.36F WCI  12
CORTEZ         CLEAR     16  13  88 E5        30.32F WCI   9
PAGE, AZ       NOT AVBL
GRAND CANYON   PTCLDY    34   8  33 NE17G23   30.32R WCI  23
KINGMAN        CLEAR     34  14  43 NE10      30.27R WCI  26
FLAGSTAFF      CLEAR     32   5  32 E14       30.29S WCI  22

$$

REGIONAL REPORTS    NEVADA/IDAHO/WYOMING

CITY           SKY/WX    TMP DP  RH WIND       PRES   REMARKS
LAS VEGAS, NV  CLEAR     51  18  27 S6        30.29R
ELY            PTCLDY    18  16  92 CALM      30.46S
ELKO           CLEAR     24  20  84 NE5       30.51R WCI  18
POCATELLO, ID  CLOUDY    29  28  96 S5        30.51S WCI  24
BURLEY         CLOUDY    29  27  92 CALM      30.49R FOG
EVANSTON, WY   PTCLDY    16  12  84 SW10      30.41R WCI   4
ROCK SPRINGS   MOCLDY    22  16  78 SW14      30.32F WCI   9

$$



USA.gov is the U.S. government's official web portal to all federal, state and local government web resources and services.